Location: Lucerne Valley
(34.4439°N, 116.9669°E)
Time: 02:58:42
(UTC-07:00)

OTV 5 (USA 277) - Pass Details

Date: 11 October 2017
Orbit: 404 x 417 km, 43.0° (Epoch: 07 September)

Event Time Altitude Azimuth Distance (km) Brightness Sun altitude
Rises 03:30:08 0° 249° (WSW) 2,343 ? -10.5°
Reaches altitude 10° 03:32:15 10° 252° (WSW) 1,483 ? -10.9°
Maximum altitude 03:35:34 61° 334° (NNW) 474 ? -11.6°
Enters shadow 03:38:12 15° 53° (NE) 1,209 ? -12.2°
